Voltar ao catálogo

QIANFAN-81

AtivoComunicaçõesPO
NORAD 63167·PAYLOAD·🇨🇳 China

Lançado Mar 11, 2025 de Wenchang Space Launch Site

Loading…

Próximas Passagens (próximas 24 horas)

TLE

AtualizadoSource: Space-Track

Época: Sep 14, 2026, 21:25 UTC

1 63167U 25046J   26257.89301788  .00000092  00000-0  12364-3 0  9996
2 63167  88.9651 291.2046 0016235  50.1287 310.1290 13.51020105 84776

Acompanhe QIANFAN-81 em tempo real com AllMySat

Download on the App Store